EHI
0 0 0 0 0 0 0 0 0 0 0 0 0 0 0 0 0 0 0 0 0 0 0 0 0 0 0 1 3 4 4 3 3 3 3 1 0 0 0 0 0 0 0 0
0 0 0 0 0 0 0 0 0 0 0 0 0 0 0 0 0 0 0 0 0 0 0 0 0 0 0 0 2 4 4 3 3 3 3 2 1 0 0 0 0 0 0 0
0 0 0 0 0 0 0 0 0 0 0 0 0 0 0 0 0 0 0 0 0 0 0 0 0 0 0 0 1 3 4 4 3 3 3 3 2 1 0 0 0 0 0 0
0 0 0 0 0 0 0 0 0 0 0 0 0 0 0 0 0 0 0 0 0 0 0 0 0 0 0 1 2 3 4 4 3 3 3 3 3 1 1 0 0 0 0 0
0 0 0 0 0 0 0 0 0 0 0 0 0 0 0 0 0 0 0 0 0 0 0 0 0 0 0 1 3 4 3 2 2 2 3 3 3 3 2 1 0 0 0 0
0 0 0 0 0 0 0 0 0 0 0 0 0 0 0 0 0 0 0 0 0 0 0 0 0 0 0 1 2 3 2 1 1 1 2 3 3 3 3 1 0 0 0 0
0 0 0 0 0 0 0 0 0 0 0 0 0 0 0 0 0 0 0 0 0 0 0 0 0 0 0 0 1 2 2 1 0 1 2 3 3 3 3 2 1 0 0 0
0 0 0 0 0 0 0 0 0 0 0 0 0 0 0 0 0 0 0 0 0 0 0 0 0 0 0 0 1 2 2 0 0 0 1 2 2 3 3 3 2 1 0 0
0 0 0 0 0 0 0 0 0 0 0 0 0 0 0 0 0 0 0 0 0 0 0 0 0 0 0 0 1 3 3 1 0 0 0 1 1 1 2 2 2 2 1 0
0 0 0 0 0 0 0 0 0 0 0 0 0 0 0 0 0 0 0 0 0 0 0 0 0 0 0 0 1 3 4 3 1 0 0 0 0 0 0 0 1 2 2 1
0 0 0 0 0 0 0 0 0 0 0 0 0 0 0 0 0 0 0 0 0 0 0 0 0 0 0 0 1 2 4 3 1 0 0 0 0 0 0 0 0 1 1 1
0 0 0 0 0 0 0 0 0 0 0 0 0 0 0 0 0 0 0 0 0 0 0 0 0 0 0 0 0 1 2 2 1 0 0 0 0 0 0 0 0 0 0 0
0 0 0 0 0 0 0 0 0 0 0 0 0 0 0 0 0 0 0 0 0 0 0 0 0 0 0 0 0 0 1 1 1 1 0 0 0 0 0 0 0 0 0 0
0 0 0 0 0 0 0 0 0 0 0 0 0 0 0 0 0 0 0 0 0 0 0 0 0 0 0 0 0 0 0 0 0 0 0 0 0 0 0 0 0 0 0 0
0 0 0 0 0 0 0 0 0 0 0 0 0 0 0 0 0 0 0 0 0 0 0 0 0 0 0 0 0 0 0 0 0 0 0 0 0 0 0 0 0 0 0 0
0 0 0 0 0 0 0 0 0 0 0 0 0 0 0 0 0 0 0 0 0 0 0 0 0 0 0 0 0 0 0 0 0 0 0 0 0 0 0 0 0 0 0 0
0 0 0 0 0 0 0 0 0 0 0 0 0 0 0 0 0 0 0 0 0 0 0 0 0 0 0 0 0 0 0 0 0 0 0 0 0 0 0 0 0 0 0 0
0 0 0 0 0 0 0 0 0 0 0 0 0 0 0 0 0 0 0 0 0 0 0 0 0 0 0 0 0 0 0 0 0 0 0 0 0 0 0 0 0 0 0 0
0 0 0 0 0 0 0 0 0 0 0 0 0 0 0 0 0 0 0 0 0 0 0 0 0 0 0 0 0 0 0 0 0 0 0 0 0 0 0 0 0 0 0 0
0 0 0 0 0 0 0 0 0 0 0 0 0 0 0 0 0 0 0 0 0 0 0 0 0 0 0 0 0 0 0 0 0 0 0 0 0 0 0 0 0 0 0 0
0 0 0 0 0 0 0 0 0 0 0 0 0 0 0 0 0 0 0 0 0 0 0 0 0 0 0 0 0 0 0 0 0 0 0 0 0 0 0 0 0 0 0 0
0 0 0 0 0 0 0 0 0 0 0 0 0 0 0 0 0 0 0 0 0 0 0 0 0 0 0 0 0 0 0 0 0 0 0 0 0 0 0 0 0 0 0 0
0 0 0 0 0 0 0 0 0 0 0 0 0 0 0 0 0 0 0 0 0 0 0 0 0 0 0 0 0 0 0 0 0 0 0 0 0 0 0 0 0 0 0 0
0 0 0 0 0 0 0 0 0 0 0 0 0 0 0 0 0 0 0 0 0 0 0 0 0 0 0 0 0 0 0 0 0 0 0 0 0 0 0 0 0 0 0 0
0 0 0 0 0 0 0 0 0 0 0 0 0 0 0 0 0 0 0 0 0 0 0 0 0 0 0 0 0 0 0 0 0 0 0 0 0 0 0 0 0 0 0 0
0 0 0 0 0 0 0 0 0 0 0 0 0 0 0 0 0 0 0 0 0 0 0 0 0 0 0 0 0 0 0 0 0 0 0 0 0 0 0 0 0 0 0 0
Wind_Speed
4 5 9 12 14 15 13 13 15 14 9 10 15 18 15 11 11 12 12 12 13 14 14 13 15 16 17 17 18 20 19 19 16 14 13 13 12 11 10 9 11 12 11 12
4 11 14 11 12 14 16 17 17 14 10 11 13 18 14 13 14 13 13 13 14 14 12 13 14 15 19 20 21 21 21 21 20 15 13 11 9 8 8 7 10 12 12 12
11 9 9 11 12 13 15 15 15 14 11 9 9 14 14 12 13 14 14 14 13 15 15 14 14 16 18 20 22 21 22 22 21 16 11 8 7 6 6 9 10 12 13 13
10 10 9 10 12 11 14 11 12 13 10 7 6 10 10 10 13 16 15 14 14 14 14 13 14 16 18 20 21 22 23 22 22 19 16 18 15 13 13 12 10 10 12 13
7 5 8 11 11 11 9 8 10 11 9 8 7 8 9 8 12 14 14 14 13 12 13 13 14 16 17 19 20 20 21 22 21 20 20 19 15 11 7 8 10 10 10 12
9 7 6 8 8 9 8 5 7 7 5 10 11 9 9 8 14 12 13 13 13 12 12 12 12 12 14 16 17 18 20 21 21 22 21 21 19 14 12 12 13 11 9 9
7 6 5 4 4 4 5 3 2 3 5 8 7 9 12 10 11 13 13 12 12 11 11 11 11 11 13 14 16 18 20 21 21 22 22 22 21 19 18 16 15 12 10 10
5 7 4 3 4 5 6 6 5 4 4 4 6 10 9 8 8 7 9 9 9 10 10 11 12 12 14 16 17 19 20 20 22 22 22 20 20 16 14 15 13 14 12 12
4 7 6 7 5 3 3 6 5 2 3 3 6 6 7 4 5 7 8 8 10 10 10 11 11 12 14 16 18 19 21 19 21 22 21 19 18 17 15 15 13 12 10 9
3 8 8 6 4 2 3 1 1 3 3 5 5 5 4 3 5 6 6 7 9 9 10 11 11 12 12 14 16 18 19 20 19 20 19 16 18 17 15 14 15 13 12 11
2 4 7 5 3 3 1 1 2 2 3 2 4 5 2 2 4 5 7 7 8 7 8 9 9 10 11 11 14 16 17 17 17 18 18 17 17 16 14 14 15 14 13 13
3 2 6 6 5 2 1 1 1 2 4 3 4 7 3 5 6 6 8 9 8 7 7 7 7 8 9 11 12 15 15 15 16 17 16 16 16 15 15 15 14 14 14 13
2 1 5 7 4 4 2 2 3 3 3 4 5 8 6 9 11 10 10 11 9 7 6 5 5 6 8 11 12 13 14 15 14 14 15 15 14 16 16 15 14 14 14 13
3 3 5 6 7 5 8 9 7 4 4 6 8 11 13 14 13 13 12 11 9 8 6 5 3 4 7 8 11 12 13 13 12 12 14 15 15 15 16 15 14 14 14 13
1 4 5 9 10 8 10 12 9 7 7 7 9 11 12 12 11 11 11 11 11 10 9 6 4 3 4 6 8 10 11 11 12 12 14 14 13 12 12 12 13 13 13 13
1 4 4 7 8 9 11 11 11 10 9 9 9 11 9 10 8 9 10 12 12 12 11 9 6 4 3 4 6 7 9 10 11 12 12 12 12 12 12 12 12 12 12 12
3 2 2 5 6 7 8 7 6 5 3 4 6 8 8 10 10 8 9 10 12 13 13 11 8 5 4 4 5 7 8 8 10 10 10 11 13 13 12 11 12 12 12 12
6 4 3 4 3 6 7 4 5 5 4 4 5 6 8 9 9 4 5 9 12 13 13 11 9 6 4 2 3 5 7 9 10 10 10 11 12 12 12 12 12 11 10 11
9 6 3 3 4 8 7 4 3 4 4 4 6 9 9 10 7 5 7 9 11 12 12 10 8 6 3 2 3 5 6 8 9 10 11 11 12 12 12 13 12 10 10 9
5 5 4 3 4 6 5 5 4 2 4 4 5 8 9 8 5 7 11 12 12 13 11 9 7 5 1 1 3 6 7 9 10 10 10 10 11 12 12 12 11 9 9 9
2 3 5 6 6 8 6 6 3 0 5 6 5 6 6 4 5 9 11 11 11 11 11 9 7 5 2 0 3 5 6 7 7 8 9 10 10 11 11 10 10 11 10 10
5 4 5 5 6 9 3 1 1 5 5 5 5 5 5 7 8 9 10 11 11 11 11 9 6 6 3 1 3 5 5 5 7 8 9 10 10 9 10 12 11 11 12 12
6 8 6 8 9 6 3 4 5 4 5 5 5 6 7 8 9 9 9 9 10 10 10 8 6 5 4 2 2 5 5 7 9 9 10 10 10 9 10 12 12 11 10 10
5 4 4 6 8 7 7 6 6 5 7 7 7 7 7 8 9 9 9 8 9 8 8 7 6 4 4 3 1 4 6 8 9 10 10 10 10 10 9 8 9 10 10 10
7 4 5 8 8 7 7 7 7 7 7 8 8 7 7 8 9 8 8 9 8 8 7 6 5 4 4 3 1 4 7 8 9 10 10 10 9 10 9 7 6 8 7 10
8 9 8 10 8 7 8 7 7 8 9 9 9 9 7 7 8 8 8 7 7 8 7 6 6 4 4 2 1 4 7 9 10 10 10 9 8 8 8 9 8 10 9 13
Wind_Direction
218 214 228 228 227 244 257 262 262 262 266 257 253 257 258 251 246 243 239 233 229 226 221 215 204 195 190 186 183 182 180 177 175 177 178 179 183 182 182 182 179 178 177 175
236 239 241 247 249 255 253 256 263 273 261 258 259 262 260 251 244 240 238 233 229 228 224 217 208 199 192 189 187 185 183 180 182 184 183 181 175 176 177 176 180 182 179 178
238 250 241 246 253 256 252 246 251 260 282 269 272 266 250 245 243 242 240 235 228 225 221 217 207 202 196 192 189 188 186 184 185 181 171 158 150 150 170 183 187 187 183 182
258 259 260 255 253 251 259 248 255 262 260 254 224 267 252 230 237 238 238 237 230 227 223 217 207 198 197 195 191 189 188 186 185 179 177 175 179 184 189 185 185 183 184 184
264 266 262 258 254 250 257 265 255 254 248 259 234 252 268 216 230 231 229 228 228 224 222 218 212 202 199 196 191 189 187 188 186 183 182 183 188 190 172 169 175 182 185 186
262 261 255 255 261 252 258 278 272 250 230 244 227 224 265 220 220 224 225 224 223 220 220 220 215 204 199 195 191 189 187 189 187 186 186 188 189 180 172 177 183 186 187 188
303 279 261 258 283 265 240 230 249 223 212 238 196 209 245 234 224 222 225 227 224 219 215 216 211 204 199 194 193 190 189 189 187 188 190 192 191 186 186 186 188 186 187 193
305 296 267 261 246 248 238 208 212 218 218 254 197 224 250 245 237 235 232 232 233 226 219 216 212 205 201 195 192 191 191 191 189 190 193 194 192 190 193 190 189 191 196 197
283 284 291 288 272 227 235 216 218 245 273 262 238 257 283 295 284 262 250 239 235 233 227 221 214 207 202 197 194 193 193 192 191 192 192 193 193 193 193 190 188 193 193 187
251 281 293 301 298 250 242 237 167 206 222 245 254 241 244 283 292 296 287 267 252 244 235 229 218 209 204 199 195 194 194 194 191 191 192 194 194 195 193 188 191 192 190 183
252 268 299 324 301 287 333 298 254 234 243 239 265 259 236 277 298 304 301 296 276 261 246 234 224 210 201 196 193 192 194 194 192 192 192 191 193 193 190 191 193 192 187 185
262 269 284 277 280 281 254 252 239 247 263 242 258 269 333 348 335 328 320 314 299 279 266 242 225 206 193 192 192 191 192 194 194 191 190 191 191 189 191 193 191 188 188 188
294 310 326 331 342 1 330 287 287 283 259 248 251 272 328 347 342 338 332 325 319 309 301 271 228 206 198 195 192 192 191 193 192 189 187 187 187 189 191 192 188 186 186 186
288 212 200 236 262 283 289 292 290 266 254 263 255 279 307 329 333 333 334 332 327 332 325 308 263 225 204 199 194 190 190 188 185 185 186 186 189 190 190 186 185 184 183 184
272 252 240 253 265 270 276 284 281 259 248 250 272 282 297 313 317 323 332 337 335 336 330 319 292 256 221 201 193 189 187 183 180 182 186 187 186 184 181 180 180 180 181 183
267 260 266 271 266 278 280 280 269 264 265 258 272 281 293 304 321 333 341 345 341 333 326 316 310 289 238 210 196 184 181 180 177 180 183 178 174 175 176 176 174 174 175 174
233 225 264 275 298 310 282 272 267 262 264 270 268 282 319 327 328 325 334 338 332 329 324 318 309 292 254 221 197 185 178 171 173 175 172 169 171 172 173 169 167 169 170 168
196 193 225 272 324 260 254 274 277 273 276 303 296 314 325 315 307 305 337 335 329 327 323 318 313 301 280 235 199 176 167 166 167 167 167 166 165 166 165 164 167 166 164 165
193 186 211 232 250 272 285 291 282 266 279 309 310 315 319 319 313 303 335 331 317 316 315 309 305 296 276 214 175 156 161 162 161 165 166 165 162 160 160 163 163 159 155 155
181 177 197 221 235 252 261 287 289 262 284 316 315 313 320 337 330 311 326 322 317 319 319 319 320 323 310 210 153 150 159 162 166 166 164 160 158 158 159 157 151 146 145 145
161 192 212 222 240 263 262 291 338 264 273 304 305 304 317 310 277 292 309 313 314 320 322 327 328 336 314 224 142 148 155 165 160 150 149 149 150 150 147 142 140 140 137 135
196 197 210 204 227 250 262 309 201 242 270 286 287 289 298 296 295 302 310 318 325 326 326 330 334 337 329 298 151 146 151 141 135 138 140 140 140 139 139 139 139 139 138 135
211 200 198 204 226 246 246 236 249 243 258 270 278 288 292 299 302 305 307 314 319 322 323 326 329 333 335 327 163 154 150 139 135 136 138 136 135 137 142 144 143 142 141 139
256 218 216 248 258 264 269 270 273 259 256 267 273 280 284 290 297 303 307 310 313 317 321 324 325 330 330 324 286 154 144 140 137 139 139 138 137 137 139 141 145 147 148 144
227 224 236 253 266 281 269 259 265 273 274 279 283 279 276 283 291 294 300 304 307 309 313 318 313 305 307 312 265 146 143 138 136 138 138 135 136 139 136 130 134 143 150 155
210 215 226 245 244 245 264 268 274 279 277 277 279 281 276 269 276 286 292 292 298 305 308 309 305 298 304 309 217 151 146 142 140 142 141 139 139 136 132 125 103 85 114 128